[[{"header":{"parameterUnit":"m.s-1","parameterCategory":1,"la1":30.2991,"la2":30.254,"lo1":-89.0895,"lo2":-89.0444,"dy":0.0017,"dx":0.0017,"nx":28,"ny":28,"refTime":"2025-08-18T09:00:00:Z","depth":0,"parameterNumber":2,"parameterNumberName":"U-component_of_WINDS"},"data":[0,0,0,0,0,0,0,0,0,0,0,0,0,0,0,0,0,0,0,0,0,0,0,0,0,0,0,0,0,0,0,0,0,0,0,0,0,0,0,0,0,0,0,0,0,0,0,0,0,0,0,0,0,0,0,0,0,0,0.0331,0.0333,0,0.0496,0.0497,0.0499,0.0584,0.0584,0.0584,0.0584,0.0755,0.0759,0.0764,0,0,0,0,0,0,0,0,0,0,0,0,0,0.0092,0.0096,0.0331,0.0333,0.0335,0.0495,0.0498,0.05,0.0584,0.0584,0.0584,0.0584,0.0754,0.0759,0.0764,0,0,0,0,0,0,0,0,0,0,0,0,0,0.022,0.0097,0.0331,0.0396,0.0404,0.0495,0.0498,0.05,0.0584,0.0584,0.0584,0.0584,0.0752,0.0758,0.0765,0.0804,0,0,0.0785,0.0788,0,0,0,0,0,0,0,0,0.0212,0.0229,0.0385,0.0392,0.04,0.0519,0.0476,0.0602,0.0584,0.0515,0.0584,0.0584,0.0677,0.069,0.072,0.0812,0.0819,0.0786,0.079,0.0793,0.0795,0,0,0,0,0,0,0,0.0203,0.0222,0.0396,0.0387,0.0396,0.0418,0.0436,0.05,0.0593,0.0521,0.0528,0.0546,0.0681,0.0714,0.0725,0.0822,0.0786,0.0792,0.0796,0.0799,0.0954,0.0954,0,0,0,0,0,0,0.0184,0.0214,0.0391,0.0401,0.0305,0.0422,0.0443,0.0481,0.0593,0.061,0.0546,0.0549,0.0702,0.0717,0.0731,0.0784,0.0793,0.0799,0.0803,0.0954,0.0954,0.0954,0,0,0,0,0,0,0.0178,0.0199,0.0384,0.0309,0.0335,0.0426,0.0469,0.0484,0.0517,0.0611,0.0629,0.0562,0.0703,0.0722,0.0785,0.0791,0.0802,0.0808,0.0954,0.0954,0.0954,0.0891,0,0,0,0,0,0,0.0171,0.0196,0.0212,0.0309,0.0338,0.0435,0.0469,0.0487,0.0528,0.0534,0.0631,0.0647,0.0704,0.0775,0.0792,0.0801,0.0814,0.0954,0.0954,0.0954,0.0893,0.0888,0.0885,0,0,0,0,0,0.0162,0.0188,0.0212,0.0233,0.0359,0.0435,0.0452,0.0516,0.0528,0.0545,0.0605,0.0644,0.0788,0.078,0.08,0.0812,0.0954,0.0954,0.0954,0.0894,0.0889,0.0885,0,0,0,0,0,0,0.009,0.0202,0.023,0.0288,0.0351,0.0449,0.0472,0.0509,0.0571,0.0574,0.0652,0.0674,0.073,0.0777,0.0767,0.0855,0.0875,0.0879,0.0822,0.0818,0.0815,0.0802,0.0819,0,0,0,0,0,0.008,0.0132,0.0227,0.0269,0.0299,0.0379,0.0415,0.0459,0.0528,0.0556,0.0621,0.0687,0.0748,0.0786,0.0846,0.09,0.0922,0.0917,0.0913,0.091,0.0913,0.0944,0.0943,0.0955,0.0955,0.0955,0,0,0.0062,0.0129,0.0157,0.0256,0.031,0.0362,0.0402,0.0455,0.0495,0.0564,0.0628,0.0678,0.0757,0.0815,0.0844,0.0857,0.0914,0.091,0.0907,0.0912,0.0945,0.0943,0.0942,0.0955,0.0955,0.0955,0,0,0.0055,0.0111,0.0152,0.0205,0.0286,0.0339,0.0349,0.0441,0.0477,0.0541,0.0594,0.0643,0.0745,0.0799,0.084,0.0851,0.089,0.0869,0.085,0.088,0.0879,0.0879,0.0883,0.0884,0.0872,0.0871,0.0871,0,0.0022,0.0102,0.0168,0.0218,0.026,0.0324,0.0366,0.0415,0.0512,0.054,0.0552,0.068,0.0738,0.081,0.0813,0.0844,0.0858,0.0859,0.0874,0.0874,0.0875,0.088,0.0881,0.0868,0.0869,0.0869,0.0869,0,0.0057,0.0111,0.0135,0.0225,0.027,0.0315,0.039,0.0427,0.0466,0.0518,0.0583,0.0655,0.0731,0.0751,0.0791,0.0829,0.0834,0.0858,0.088,0.0869,0.0875,0.0878,0.0864,0.0865,0.0866,0.0867,0,0,0.001,0.0136,0.0143,0.0185,0.0279,0.0322,0.0371,0.0444,0.0474,0.0539,0.0582,0.0666,0.069,0.0736,0.0782,0.0808,0.0813,0.0831,0.0834,0.0825,0.0859,0.084,0.0841,0.0839,0.0839,0.084,0.0852,0,0.0016,0.0106,0.0166,0.0232,0.0283,0.0344,0.0386,0.0449,0.0498,0.0549,0.0605,0.0663,0.0689,0.0718,0.0746,0.0806,0.0821,0.0806,0.088,0.0882,0.0859,0.0844,0.0824,0.0833,0.0855,0.0856,0.0856,0,0.0036,0.0097,0.0167,0.0254,0.0278,0.0315,0.0387,0.0434,0.0506,0.0541,0.0591,0.0638,0.0693,0.0708,0.0785,0.0773,0.0807,0.0841,0.0843,0.0853,0.0868,0.0854,0.0837,0.0838,0.086,0.086,0.086,0,-0.0006,0.0094,0.0149,0.0183,0.0286,0.0311,0.0355,0.0427,0.0467,0.053,0.0556,0.0625,0.0663,0.0715,0.078,0.0785,0.0849,0.0871,0.088,0.0878,0.0892,0.089,0.088,0.0912,0.0912,0.0912,0.0912,0,-0.0005,0.0036,0.0132,0.0166,0.0213,0.0283,0.0328,0.0378,0.0441,0.0486,0.0543,0.0584,0.0667,0.0718,0.0769,0.0824,0.0841,0.0871,0.0884,0.0866,0.0862,0.089,0.0891,0.0913,0.0913,0.0913,0.0912,0,-0.0043,0.0023,0.0087,0.0179,0.0203,0.0234,0.0313,0.0348,0.04,0.0457,0.0474,0.0556,0.0619,0.0689,0.0776,0.081,0.0863,0.0881,0.0838,0.0846,0.0851,0.085,0.0859,0.0864,0.0892,0.0891,0.0891,0,-0.0046,-0.0014,0.0081,0.0114,0.0157,0.021,0.0251,0.0321,0.0361,0.0444,0.0469,0.0537,0.0594,0.0693,0.0761,0.0828,0.0849,0.0847,0.0859,0.084,0.0849,0.0846,0.085,0.0844,0.0843,0.0843,0.0842,0,-0.006,-0.0029,0.0026,0.0093,0.0139,0.0196,0.0254,0.0279,0.036,0.0402,0.0467,0.0511,0.06,0.0666,0.0741,0.0788,0.0829,0.0838,0.0844,0.0826,0.0799,0.0814,0.0828,0.0837,0.0838,0.0838,0.0839,0.0839,-0.008,-0.0049,0.0022,0.0082,0.0133,0.0186,0.0224,0.028,0.0335,0.0411,0.0449,0.0513,0.0584,0.0689,0.0734,0.0786,0.0799,0.0808,0.081,0.0811,0.0806,0.079,0.08,0.0801,0.0801,0.0801,0.0801,0,-0.0091,-0.0042,0.0012,0.0091,0.0138,0.0171,0.0237,0.0275,0.033,0.0393,0.0447,0.0522,0.0586,0.0659,0.0728,0.0755,0.0776,0.0771,0.077,0.078,0.0791,0.0779,0.0753,0.0753,0.0753,0.0753,0.0753,0.0753,-0.0091,-0.0036,0.0003,0.0083,0.0132,0.0194,0.0229,0.0279,0.0329,0.0408,0.0462,0.0508,0.0575,0.0649,0.0709,0.0729,0.0752,0.0742,0.0767,0.0776,0.078,0.0783,0.0772,0.0746,0.0746,0.0753,0.0753,0.0753]},{"header":{"parameterUnit":"m.s-1","parameterCategory":1,"la1":30.2991,"la2":30.254,"lo1":-89.0895,"lo2":-89.0444,"dy":0.0017,"dx":0.0017,"nx":28,"ny":28,"refTime":"2025-08-18T09:00:00:Z","depth":0,"parameterNumber":3,"parameterNumberName":"V-component_of_WINDS"},"data":[0,0,0,0,0,0,0,0,0,0,0,0,0,0,0,0,0,0,0,0,0,0,0,0,0,0,0,0,0,0,0,0,0,0,0,0,0,0,0,0,0,0,0,0,0,0,0,0,0,0,0,0,0,0,0,0,0,0,0.2863,0.2863,0,0.2846,0.2846,0.2845,0.2812,0.2811,0.2811,0.281,0.2794,0.2794,0.2795,0,0,0,0,0,0,0,0,0,0,0,0,0,0.2867,0.2867,0.2863,0.2863,0.2862,0.2846,0.2846,0.2845,0.2812,0.2811,0.2811,0.281,0.2794,0.2794,0.2795,0,0,0,0,0,0,0,0,0,0,0,0,0,0.2859,0.2867,0.2863,0.2844,0.2842,0.2846,0.2846,0.2845,0.2812,0.2811,0.281,0.281,0.2794,0.2794,0.2795,0.2816,0,0,0.2795,0.2796,0,0,0,0,0,0,0,0,0.2859,0.2859,0.2847,0.2845,0.2843,0.283,0.2841,0.2835,0.2813,0.2824,0.281,0.2809,0.2807,0.2806,0.2805,0.2815,0.2815,0.2795,0.2796,0.2796,0.2796,0,0,0,0,0,0,0,0.286,0.2859,0.2856,0.2847,0.2844,0.2836,0.2834,0.284,0.2821,0.2823,0.282,0.2819,0.2806,0.2805,0.2805,0.2814,0.2795,0.2796,0.2796,0.2796,0.284,0.2841,0,0,0,0,0,0,0.2863,0.286,0.2857,0.2856,0.2849,0.2837,0.2834,0.2835,0.2821,0.2818,0.2819,0.2817,0.2805,0.2804,0.2804,0.2828,0.2796,0.2796,0.2796,0.2839,0.284,0.2841,0,0,0,0,0,0,0.2863,0.2863,0.2857,0.2857,0.2856,0.2838,0.2839,0.2835,0.2835,0.2818,0.2815,0.2822,0.2804,0.2803,0.2813,0.2827,0.2796,0.2796,0.2838,0.2839,0.284,0.2876,0,0,0,0,0,0,0.2864,0.2863,0.2872,0.2857,0.2856,0.2867,0.284,0.2836,0.2835,0.2832,0.282,0.2817,0.2803,0.2813,0.2813,0.2826,0.2797,0.2836,0.2838,0.284,0.2873,0.2878,0.2882,0,0,0,0,0,0.2864,0.2883,0.2872,0.2872,0.2866,0.2868,0.2867,0.285,0.2836,0.2844,0.2833,0.2818,0.2825,0.2814,0.2814,0.2828,0.2835,0.2838,0.284,0.2871,0.2877,0.2882,0,0,0,0,0,0,0.29,0.2881,0.2869,0.2884,0.2877,0.2862,0.2872,0.2857,0.2855,0.2852,0.2832,0.283,0.2842,0.2835,0.2824,0.2847,0.2827,0.283,0.2851,0.2857,0.2861,0.2863,0.2797,0,0,0,0,0,0.291,0.2913,0.2896,0.291,0.2908,0.289,0.2891,0.2878,0.2871,0.2868,0.2858,0.2853,0.2853,0.2854,0.2854,0.2871,0.2868,0.2881,0.2885,0.2889,0.2892,0.29,0.2905,0.2848,0.2848,0.2848,0,0,0.293,0.2919,0.2923,0.2917,0.2911,0.2915,0.2888,0.2894,0.2896,0.2869,0.2878,0.287,0.2862,0.2875,0.288,0.287,0.2907,0.2892,0.2895,0.2896,0.2903,0.2908,0.2913,0.285,0.285,0.2849,0,0,0.2968,0.2961,0.2972,0.2966,0.2956,0.2944,0.2947,0.2933,0.2927,0.2934,0.2914,0.2916,0.2918,0.2913,0.2911,0.2945,0.293,0.2945,0.297,0.2978,0.2982,0.2986,0.2999,0.3004,0.2948,0.2948,0.2948,0,0.2995,0.3,0.298,0.2986,0.2984,0.2958,0.2969,0.2964,0.2955,0.2954,0.2943,0.2944,0.2936,0.2948,0.2956,0.2955,0.2957,0.2947,0.2983,0.2987,0.299,0.3002,0.3007,0.295,0.295,0.2949,0.2949,0,0.3033,0.3036,0.3046,0.3037,0.3036,0.3045,0.3026,0.3027,0.3014,0.3003,0.301,0.3,0.2997,0.2999,0.2986,0.3008,0.3002,0.2987,0.2967,0.2998,0.3009,0.3013,0.2953,0.2952,0.2951,0.2951,0,0,0.3096,0.3074,0.3078,0.3074,0.306,0.3062,0.3069,0.3065,0.3067,0.3061,0.3066,0.3067,0.3053,0.305,0.3036,0.3043,0.3071,0.3027,0.3027,0.3036,0.3094,0.3106,0.3112,0.306,0.3061,0.3062,0.3095,0,0.3132,0.3143,0.3124,0.314,0.3142,0.3117,0.3122,0.3115,0.3104,0.3104,0.3093,0.3094,0.3075,0.3073,0.3078,0.3067,0.3083,0.3064,0.3066,0.3066,0.307,0.3117,0.3131,0.3163,0.3099,0.31,0.31,0,0.3177,0.3172,0.3188,0.3172,0.3172,0.3178,0.3172,0.3173,0.3163,0.3155,0.3151,0.3134,0.3139,0.3119,0.3126,0.3113,0.3112,0.3106,0.3107,0.3108,0.3086,0.312,0.3173,0.3178,0.3106,0.3106,0.3105,0,0.3223,0.322,0.3228,0.3225,0.3206,0.3211,0.3204,0.3193,0.3191,0.3186,0.3185,0.318,0.3178,0.3175,0.3158,0.3144,0.3167,0.3145,0.316,0.3161,0.3168,0.3168,0.3222,0.3165,0.3165,0.3165,0.3165,0,0.3266,0.3277,0.3248,0.3254,0.3264,0.3242,0.3253,0.3243,0.3233,0.3236,0.3213,0.3216,0.3192,0.3193,0.3179,0.3187,0.3186,0.3179,0.3176,0.3182,0.3183,0.3182,0.318,0.3166,0.3166,0.3166,0.3166,0,0.3319,0.3301,0.3308,0.329,0.3285,0.3294,0.3278,0.3282,0.3268,0.3272,0.3272,0.3252,0.3251,0.3232,0.3228,0.3218,0.3232,0.3224,0.3236,0.3233,0.325,0.3249,0.3307,0.3313,0.3252,0.3252,0.3253,0,0.3349,0.3356,0.3338,0.3338,0.3331,0.3332,0.3329,0.3307,0.3306,0.3294,0.3299,0.3296,0.3293,0.3293,0.3278,0.3274,0.3266,0.3286,0.3265,0.3271,0.3267,0.3267,0.3268,0.3291,0.3292,0.3293,0.3293,0,0.3404,0.3394,0.3392,0.3386,0.3383,0.3378,0.3371,0.3372,0.3347,0.3347,0.3345,0.3343,0.3337,0.3334,0.3327,0.332,0.3303,0.3299,0.3303,0.331,0.3317,0.3314,0.3249,0.3299,0.3298,0.3298,0.3297,0.3297,0.3447,0.3452,0.3439,0.3437,0.3429,0.3423,0.3425,0.3412,0.341,0.3403,0.339,0.339,0.3379,0.3367,0.3361,0.336,0.335,0.3355,0.3357,0.3359,0.3362,0.3316,0.3359,0.3359,0.3359,0.3358,0.3358,0,0.3501,0.3491,0.3489,0.348,0.3478,0.346,0.3451,0.3451,0.3451,0.3441,0.3438,0.3436,0.3432,0.3416,0.3411,0.3414,0.3406,0.3414,0.3414,0.3412,0.3371,0.3369,0.342,0.342,0.342,0.342,0.342,0.342,0.3529,0.3537,0.3525,0.3528,0.3517,0.3517,0.3513,0.3507,0.3499,0.3497,0.3494,0.3483,0.3471,0.3464,0.346,0.3456,0.3455,0.3466,0.3459,0.3421,0.3415,0.341,0.3408,0.3465,0.3466,0.3499,0.35,0.35]}]]